Home   Weather   Corner Brook   Past weeks

Flag for Canada Past Weather in Corner Brook, Newfoundland and Labrador, Canada — Yesterday and Last 2 Weeks

Now
54 °F

Passing clouds.


Feels Like: 49 °F
Forecast: 37 / 57 °F
Wind: 15 mph from Southwest

Location: Deer Lake

Current Time: Sep 30, 2016 at 11:07:05 AM

Latest Report: Sep 30, 2016 at 10:30 AM


Visibility: 15 mi

Pressure: 30.32 "Hg

Humidity: 77%

Dew Point: 46 °F

Location of Corner BrookLocation

Past Weather in Corner Brook — Graph

°F

Corner Brook Temperature Yesterday

Maximum temperature yesterday: 52 °F (at 2:30 PM)
Minimum temperature yesterday: 27 °F (at 5:30 AM)
Average temperature yesterday: 38 °F

High & Low Weather Summary for the Past Weeks

 TemperatureHumidityPressure
High66 °F (Sep 17, 12:30 PM)100% (Sep 16, 1:30 AM)30.58 "Hg (Sep 16, 1:30 AM)
Low27 °F (Sep 29, 5:30 AM)5% (Sep 25, 1:30 PM)29.61 "Hg (Sep 25, 4:30 PM)
Average48 °F82%30.02 "Hg
* Reported Sep 15 9:30 AM — Sep 30 9:30 AM, Corner Brook, Weather by CustomWeather, © 2016

Note: Actual official high and low records may vary slightly from our data, if they occured in-between our weather recording intervals... More about our weather records

Advertising

Corner Brook Weather History for the Previous 24 Hours

Scroll right to see more
 ConditionsComfort  
Time TempWeatherWind HumidityBarometerVisibility
9:30 AM
Fri, Sep 30
50 °FPassing clouds.12 mph82%30.31 "Hg15 mi
8:30 AM45 °FScattered clouds.7 mph93%30.31 "Hg15 mi
7:30 AM39 °FPassing clouds.5 mph100%30.31 "Hg15 mi
6:30 AM41 °FClear.6 mph93%30.30 "Hg15 mi
5:30 AM43 °FClear.9 mph93%30.30 "Hg15 mi
4:30 AM37 °FClear.6 mph93%30.30 "Hg15 mi
3:30 AM36 °FClear.3 mph93%30.31 "Hg15 mi
2:30 AM36 °FClear.7 mph93%30.31 "Hg15 mi
1:30 AM36 °FClear.2 mph93%30.32 "Hg15 mi
12:30 AM34 °FClear.3 mph93%30.34 "Hg15 mi
11:30 PM
Thu, Sep 29
34 °FClear.5 mph87%30.37 "Hg15 mi
10:30 PM30 °FClear.3 mph100%30.37 "Hg15 mi
9:30 PM34 °FClear.No wind93%30.37 "Hg15 mi
8:30 PM37 °FPassing clouds.No wind87%30.37 "Hg15 mi
7:30 PM41 °FPassing clouds.No wind87%30.37 "Hg15 mi
6:30 PM48 °FPassing clouds.5 mph62%30.37 "Hg15 mi
5:30 PM52 °FScattered clouds.6 mph58%30.38 "Hg15 mi
4:30 PM52 °FPartly sunny.9 mph58%30.39 "Hg15 mi
3:30 PM52 °FPartly sunny.8 mph54%30.42 "Hg15 mi
2:30 PM52 °FPartly sunny.6 mph58%30.42 "Hg15 mi
1:30 PM48 °FPartly sunny.3 mph76%30.46 "Hg15 mi
12:30 PM48 °FMostly cloudy.No wind71%30.47 "Hg15 mi
11:30 AM45 °FPartly sunny.No wind81%30.49 "Hg15 mi
Weather by CustomWeather, © 2016

See weather overviewHow to use our weather pages